Flag for Greece Weather past 2 weeks in Ilioupoli, Greece

66 °F

Passing clouds.

Feels Like: 66 °F
Forecast: 66 / 74 °F
Wind: 7 mph from Northeast

Location: Eleftherios Venizelos International Airport

Current Time: Oct 8, 2015 at 9:16:54 PM

Latest Report: Oct 8, 2015 at 8:50 PM

Visibility: N/A

Pressure: 30.01 "Hg

Humidity: 73%

Dew point: 57 °F

Location of IlioupoliLocation

Historic Weather in Ilioupoli — Graph


Ilioupoli temperature yesterday

Maximum temperature yesterday: 77 °F (at 11:50 AM)
Minimum temperature yesterday: 59 °F (at 4:50 AM)
Average temperature yesterday: 70 °F

Past Weeks' High & Low Weather Summary

High82 °F (Sep 24, 2:50 PM)94% (Sep 24, 1:20 AM)30.30 "Hg (Sep 24, 1:20 AM)
Low54 °F (Oct 4, 3:50 AM)46% (Oct 1, 1:50 PM)29.80 "Hg (Oct 7, 4:50 AM)
Average69 °F72%30.02 "Hg
* Reported Sep 23 7:20 PM — Oct 8 7:50 PM, Ilioupoli, Weather by CustomWeather, © 2015

Note: Actual official high and low records may vary slightly from our data, if they occured in-between our weather recording intervals... More about our weather records


Ilioupoli weather history for previous 24 hours

Time TempWeatherWind HumidityBarometerVisibility
7:50 PM
Thu, Oct 8
66 °FPassing clouds.8 mph73%29.98 "HgN/A
7:20 PM68 °FPassing clouds.8 mph69%29.98 "HgN/A
6:50 PM70 °FPassing clouds.12 mph64%29.95 "HgN/A
6:20 PM72 °FPassing clouds.14 mph65%29.95 "HgN/A
5:50 PM72 °FPassing clouds.16 mph69%29.95 "HgN/A
5:20 PM72 °FPassing clouds.16 mph69%29.95 "HgN/A
4:50 PM72 °FScattered clouds.16 mph69%29.95 "HgN/A
4:20 PM72 °FScattered clouds.14 mph73%29.95 "HgN/A
2:50 PM73 °FPartly sunny.10 mph69%29.92 "HgN/A
2:20 PM73 °FPartly sunny.13 mph61%29.92 "HgN/A
1:50 PM72 °FPartly sunny.12 mph69%29.92 "HgN/A
1:20 PM72 °FPartly sunny.10 mph69%29.92 "HgN/A
12:50 PM72 °FPartly sunny.9 mph69%29.95 "HgN/A
12:20 PM68 °FPartly sunny.12 mph78%29.92 "HgN/A
11:50 AM72 °FPartly sunny.14 mph69%29.92 "HgN/A
11:20 AM72 °FPartly sunny.9 mph69%29.92 "HgN/A
10:50 AM72 °FPartly sunny.8 mph73%29.92 "HgN/A
10:20 AM70 °FPassing clouds.9 mph78%29.89 "HgN/A
9:50 AM70 °FPassing clouds.1 mph78%29.89 "HgN/A
9:20 AM68 °FPassing clouds.5 mph88%29.89 "HgN/A
8:50 AM66 °FScattered clouds.2 mph88%29.86 "HgN/A
8:20 AM64 °FPassing clouds.2 mph94%29.86 "HgN/A
7:50 AM64 °FPassing clouds.3 mph88%29.86 "HgN/A
7:20 AM64 °FPassing clouds.6 mph88%29.83 "HgN/A
6:50 AM66 °FPassing clouds.2 mph83%29.83 "HgN/A
6:20 AM66 °FPartly cloudy.2 mph83%29.83 "HgN/A
5:50 AM66 °FPartly cloudy.2 mph88%29.83 "HgN/A
5:20 AM66 °FPartly cloudy.3 mph88%29.83 "HgN/A
4:50 AM64 °FPartly cloudy.3 mph94%29.83 "HgN/A
4:20 AM64 °FPartly cloudy.3 mph88%29.83 "HgN/A
3:50 AM64 °FPartly cloudy.2 mph88%29.83 "HgN/A
3:20 AM64 °FPartly cloudy.6 mph88%29.83 "HgN/A
2:50 AM64 °FPartly cloudy.7 mph94%29.83 "HgN/A
2:20 AM66 °FPartly cloudy.10 mph88%29.83 "HgN/A
1:50 AM66 °FPartly cloudy.6 mph88%29.83 "HgN/A
12:50 AM66 °FPartly cloudy.6 mph88%29.83 "HgN/A
11:50 PM
Wed, Oct 7
68 °FPassing clouds.2 mph78%29.83 "HgN/A
11:20 PM68 °FPassing clouds.2 mph78%29.83 "HgN/A
10:50 PM68 °FPassing clouds.3 mph83%29.83 "HgN/A
10:20 PM68 °FLight rain. Partly cloudy.6 mph83%29.83 "Hg6 mi
9:50 PM72 °FRain. Partly cloudy.5 mph78%29.83 "Hg5 mi
9:20 PM72 °FLight rain. Partly cloudy.3 mph73%29.83 "HgN/A
Weather by CustomWeather, © 2015

See weather overviewHow to use our weather pages